Probability
1 1 1 0 0 0 0 0 0 0 0 0 0 1 4 7 7 4 3 2 3 3 3 3 2 1 0 0 0 0 0 0 0 0 0 0 0 0 0 0 0 0 0 0
0 0 0 0 0 0 0 0 0 0 0 0 0 0 2 5 5 3 1 1 2 3 3 3 2 1 0 0 0 0 0 0 0 0 0 0 0 0 0 0 0 0 0 0
0 0 0 0 0 0 0 0 0 0 0 0 0 0 1 3 2 1 0 0 1 3 3 3 2 1 0 0 0 0 0 0 0 0 0 0 0 0 0 0 0 0 0 0
0 0 0 0 0 0 0 0 0 0 0 0 0 0 1 1 1 0 0 0 1 2 2 2 1 0 0 0 0 0 0 0 0 0 0 0 0 0 0 0 0 0 0 0
0 0 0 0 0 0 0 0 0 0 0 0 0 0 0 0 0 0 0 0 0 1 1 1 0 0 0 0 0 0 0 0 0 0 0 0 0 0 0 0 0 0 0 0
0 0 0 0 0 0 0 0 0 0 0 0 0 0 0 0 0 0 0 0 0 0 0 0 0 0 0 0 0 0 0 0 0 0 0 0 0 0 0 0 0 0 0 0
0 0 0 0 0 0 0 0 0 0 0 0 0 0 0 0 0 0 0 0 0 0 0 0 0 0 0 0 0 0 0 0 0 0 0 0 0 0 0 0 0 0 0 0
0 0 0 0 0 0 0 0 0 0 0 0 0 0 0 0 0 0 0 0 0 0 0 0 0 0 0 0 0 0 0 0 0 0 0 0 0 0 0 0 0 0 0 0
0 0 0 0 0 0 0 0 0 0 0 0 0 0 0 0 0 0 0 0 0 0 0 0 0 0 0 0 0 0 0 0 0 0 0 0 0 0 0 0 0 0 0 0
0 0 0 0 0 0 0 0 0 0 0 0 0 0 0 0 0 0 0 0 0 0 0 0 0 0 0 0 0 0 0 0 0 0 0 0 0 0 0 0 0 0 0 0
0 0 0 0 0 0 0 0 0 0 0 0 0 0 0 0 0 0 0 0 0 0 0 0 0 0 0 0 0 0 0 0 0 0 0 0 0 0 0 0 0 0 0 0
0 0 0 0 0 0 0 0 0 0 0 0 0 0 0 0 0 0 0 0 0 0 0 0 0 0 0 0 0 0 0 0 0 0 0 0 0 0 0 0 0 0 0 0
0 0 0 0 0 0 0 0 0 0 0 0 0 0 0 0 0 0 0 0 0 0 0 0 0 0 0 0 0 0 0 0 0 0 0 0 0 0 0 0 0 0 0 0
0 0 0 0 0 0 0 0 0 0 0 0 0 0 0 0 0 0 0 0 0 0 0 0 0 0 0 0 0 0 0 0 0 0 0 0 0 0 0 0 0 0 0 0
0 0 0 0 0 0 0 0 0 0 0 0 0 0 0 0 0 0 0 0 0 0 0 0 0 0 0 0 0 0 0 0 0 0 0 0 0 0 0 0 0 0 0 0
0 0 0 0 0 0 0 0 0 0 0 0 0 0 0 0 0 0 0 0 0 0 0 0 0 0 0 0 0 0 0 0 0 0 0 0 0 0 0 0 0 0 0 0
0 0 0 0 0 0 0 0 0 0 0 0 0 0 0 0 0 0 0 0 0 0 0 0 0 0 0 0 0 0 0 0 0 0 0 0 0 0 0 0 0 0 0 0
0 0 0 0 0 0 0 0 0 0 0 0 0 0 0 0 0 0 0 0 0 0 0 0 0 0 0 0 0 0 0 0 0 0 0 0 0 0 0 0 0 0 0 0
0 0 0 0 0 0 0 0 0 0 0 0 0 0 0 0 0 0 0 0 0 0 0 0 0 0 0 0 0 0 0 0 0 0 0 0 0 0 0 0 0 0 0 0
0 0 0 0 0 0 0 0 0 0 0 0 0 0 0 0 0 0 0 0 0 0 0 0 0 0 0 0 0 0 0 0 0 0 0 0 0 0 0 0 0 0 0 0
0 0 0 0 0 0 0 0 0 0 0 0 0 0 0 0 0 0 0 0 0 0 0 0 0 0 0 0 0 0 0 0 0 0 0 0 0 0 0 0 0 0 0 0
0 0 0 0 0 0 0 0 0 0 0 0 0 0 0 0 0 0 0 0 0 0 0 0 0 0 0 0 0 0 0 0 0 0 0 0 0 0 0 0 0 0 0 0
0 0 0 0 0 0 0 0 0 0 0 0 0 0 0 0 0 0 0 0 0 0 0 0 0 0 0 0 0 0 0 0 0 0 0 0 0 0 0 0 0 0 0 0
0 0 0 0 0 0 0 0 0 0 0 0 0 0 0 0 0 0 0 0 0 0 0 0 0 0 0 0 0 0 0 0 0 0 0 0 0 0 0 0 0 0 0 0
0 0 0 0 0 0 0 0 0 0 0 0 0 0 0 0 0 0 0 0 0 0 0 0 0 0 0 0 0 0 0 0 0 0 0 0 0 0 0 0 0 0 0 0
0 0 0 0 0 0 0 0 0 0 0 0 0 0 0 0 0 0 0 0 0 0 0 0 0 0 0 0 0 0 0 0 0 0 0 0 0 0 0 0 0 0 0 0
Wind_Speed
13 12 11 10 6 6 7 9 9 4 2 4 8 9 5 5 7 6 4 4 3 2 3 5 5 2 3 4 5 5 5 5 3 3 3 3 3 4 4 3 4 5 4 5
12 15 13 10 5 7 10 11 10 4 1 5 9 11 6 3 4 3 1 2 1 2 2 5 4 3 3 3 4 4 4 4 3 2 3 3 3 3 3 3 4 4 5 4
15 10 10 9 7 9 10 8 7 8 9 10 10 9 3 7 5 4 2 1 2 2 2 3 4 3 3 3 4 4 4 4 4 4 2 3 3 3 3 4 3 4 5 4
12 9 8 8 8 8 7 4 6 9 9 8 6 5 3 9 7 6 4 3 2 3 2 3 3 3 2 3 3 4 4 5 5 5 3 4 3 3 4 4 3 5 5 4
8 9 9 9 6 4 3 4 8 10 10 11 10 7 3 8 5 5 5 4 3 3 2 2 3 3 3 3 3 3 4 4 5 5 4 3 3 3 3 4 5 5 4 4
6 5 5 3 1 1 3 8 12 11 8 9 5 2 2 4 6 5 5 5 4 3 2 3 3 4 2 2 2 2 3 3 4 4 5 4 5 5 5 5 5 5 4 4
8 8 5 3 4 5 7 8 6 5 6 3 5 1 4 9 7 5 4 4 4 3 3 2 2 3 2 1 2 2 3 3 4 5 5 5 5 5 5 5 5 5 4 4
11 11 10 7 7 5 6 7 6 6 5 4 2 3 8 9 6 4 3 4 2 1 3 2 2 2 1 1 1 2 3 3 4 4 4 4 5 4 3 5 5 4 4 4
6 6 9 7 4 5 6 5 3 5 10 8 3 7 9 7 6 4 3 3 3 2 3 3 3 2 1 1 0 1 2 3 4 4 4 4 4 4 5 5 5 4 4 5
5 3 7 5 4 5 6 7 4 5 5 6 3 3 6 5 4 2 1 1 2 3 2 3 3 2 1 1 1 0 1 2 2 3 4 4 4 4 5 5 5 5 5 5
6 3 8 8 8 9 8 7 5 4 5 3 4 4 6 5 4 2 2 2 2 2 2 2 3 3 1 0 0 0 1 1 2 3 4 4 4 4 4 5 5 5 5 5
6 4 6 10 6 2 4 6 6 4 4 3 3 2 5 5 3 1 2 2 2 2 2 2 3 2 2 1 1 1 1 2 2 2 3 4 4 4 4 5 5 6 5 5
4 5 5 6 5 4 5 6 6 5 4 5 5 2 5 4 3 3 2 2 2 2 2 3 3 3 2 1 0 1 1 2 2 2 3 4 4 4 5 5 5 5 5 6
4 7 8 5 2 2 6 6 6 6 5 6 5 1 2 2 3 3 3 2 2 2 2 2 3 3 3 1 0 1 2 1 1 1 2 3 4 4 5 5 5 5 5 6
4 8 11 8 4 4 6 7 7 9 9 9 7 5 5 4 4 2 2 2 2 2 2 2 3 3 3 3 2 1 1 1 1 1 2 3 3 4 4 5 5 5 5 6
7 9 11 10 8 7 9 9 10 10 10 9 8 6 2 3 3 2 1 2 1 1 1 1 2 3 3 3 4 3 1 0 1 1 2 2 2 3 4 4 5 5 5 5
8 10 10 10 8 7 9 10 11 10 8 7 6 3 2 2 2 2 2 2 1 1 2 2 0 1 1 3 3 3 3 2 0 1 2 1 2 3 3 5 5 5 4 4
7 8 5 8 8 10 1 3 1 4 6 6 5 1 1 1 2 2 2 2 2 3 3 2 0 1 1 1 2 2 2 2 1 1 1 1 1 2 3 3 4 5 4 3
6 6 6 7 9 9 4 5 4 4 4 4 3 2 1 0 2 3 4 3 3 4 4 3 2 1 1 2 2 1 0 1 1 1 1 1 1 1 2 3 4 4 4 4
5 6 6 6 7 6 3 8 4 2 3 4 3 3 1 1 0 3 5 5 5 5 4 3 1 0 1 2 2 1 2 1 1 1 1 1 0 1 2 2 3 3 3 4
7 6 8 8 9 4 6 7 4 2 2 5 4 3 1 3 4 4 5 5 5 4 3 2 1 1 1 1 0 2 2 2 2 2 1 1 1 2 2 2 2 3 3 4
7 6 8 7 8 4 7 6 3 4 6 5 4 4 4 4 5 4 4 5 4 4 3 2 1 0 1 1 1 2 1 2 1 1 1 2 3 3 2 2 2 3 3 4
6 5 3 2 1 4 2 4 5 3 4 3 3 4 3 3 3 4 3 4 4 3 3 2 0 0 1 0 1 2 1 1 1 2 3 3 4 4 3 3 3 3 3 2
5 4 4 3 3 5 4 4 3 2 2 2 2 2 2 2 3 3 3 3 4 3 3 2 0 0 0 0 1 1 2 2 3 4 4 4 4 4 3 3 3 2 2 2
3 2 5 6 3 4 5 5 4 3 3 3 3 3 2 3 3 3 3 4 3 3 3 2 1 1 2 1 1 1 2 3 4 5 4 4 3 3 3 3 3 3 3 3
8 6 6 5 4 5 7 9 7 6 4 4 4 5 4 3 3 3 4 4 4 4 3 2 2 2 2 3 3 3 2 3 4 5 5 3 3 2 2 3 3 6 7 8
Wind_Direction
207 222 231 232 232 273 292 285 289 293 141 263 286 286 258 196 172 195 223 232 220 144 122 109 97 72 33 34 24 12 7 5 4 5 335 330 326 329 317 319 328 332 325 318
210 223 233 235 201 238 262 278 295 323 24 297 293 289 271 169 156 157 261 297 358 97 94 100 94 69 41 38 36 7 4 353 3 350 327 323 327 313 310 328 326 322 313 306
222 222 230 234 237 249 263 282 313 322 313 281 271 275 202 126 127 137 175 76 27 76 51 67 75 62 41 35 43 3 353 356 357 347 350 339 331 319 332 325 319 311 307 304
230 227 236 232 245 255 276 349 318 303 299 297 290 293 182 141 153 159 150 133 113 92 80 88 84 68 32 45 44 4 5 359 359 353 355 336 324 321 320 319 314 315 315 312
226 209 228 239 240 265 305 320 290 285 283 281 266 265 142 140 145 131 123 116 106 106 98 94 98 83 40 44 38 3 356 359 354 342 335 319 326 316 313 320 322 322 315 313
232 224 228 240 115 310 300 276 263 251 258 262 240 270 98 100 82 87 100 110 111 102 96 84 88 94 66 47 28 352 357 352 341 340 334 340 337 330 326 331 328 323 318 314
211 213 186 186 225 208 242 270 277 250 220 222 111 186 81 86 73 64 66 79 83 100 102 94 81 94 85 56 16 342 355 350 345 343 340 343 344 338 335 338 324 321 322 322
212 204 184 198 238 265 241 266 291 309 315 336 188 157 100 99 93 90 104 105 104 135 125 132 125 111 108 72 21 345 356 347 344 342 344 338 347 343 338 333 324 323 319 315
239 203 168 173 203 270 274 258 310 309 289 283 227 124 119 123 138 150 162 153 172 161 148 151 142 136 136 123 49 351 348 341 345 344 335 338 348 346 341 335 330 325 324 328
285 159 156 143 191 217 279 321 308 274 301 304 296 112 115 129 107 107 164 161 141 141 142 140 138 134 129 141 169 317 318 326 342 346 338 351 354 351 340 332 331 336 337 333
264 214 173 176 209 216 205 229 244 273 279 291 331 52 79 85 72 34 13 51 77 112 132 137 130 128 136 200 193 233 317 354 16 0 345 355 355 345 345 340 338 341 335 337
247 258 212 198 187 204 264 262 269 271 297 300 288 99 105 104 108 107 62 62 74 106 128 138 134 144 151 194 308 324 8 21 28 11 357 358 345 352 356 346 342 340 342 346
308 270 246 179 160 177 228 242 265 282 290 281 281 126 150 140 139 119 107 100 114 138 159 159 146 151 150 218 233 4 12 35 30 22 9 358 358 2 351 343 346 347 353 353
321 272 270 271 323 196 214 216 226 250 258 268 275 318 155 90 68 80 100 116 138 147 167 158 143 168 164 202 157 58 3 11 22 32 20 4 358 0 350 347 350 354 357 353
258 269 277 278 256 271 271 260 234 234 253 271 300 328 352 37 50 57 113 140 139 147 166 170 166 176 168 172 137 112 317 330 345 36 46 26 360 1 357 347 346 359 357 350
237 264 275 276 268 259 261 255 248 242 245 259 279 292 337 80 70 36 64 112 130 149 156 167 171 165 178 165 152 165 185 246 317 50 67 40 352 359 355 340 345 353 347 348
228 249 273 283 274 262 258 246 236 234 232 238 255 273 45 52 53 39 34 73 117 118 113 113 266 159 187 149 151 166 169 167 123 58 82 57 7 360 349 346 347 342 342 359
260 262 269 275 270 262 247 79 174 231 230 224 226 232 54 21 73 84 64 54 64 101 110 118 91 85 36 80 106 107 128 131 109 52 55 64 34 360 345 340 334 331 339 351
276 279 271 267 269 267 197 162 171 202 224 209 210 169 118 123 177 136 109 83 65 75 83 90 69 58 37 53 61 32 259 125 112 72 21 37 49 351 328 326 325 327 336 337
252 266 262 268 273 282 100 111 118 226 229 147 133 116 111 270 168 97 93 90 82 80 81 90 91 357 76 67 57 322 313 54 88 78 16 17 15 290 294 306 312 316 318 317
197 223 237 260 268 265 114 118 134 224 108 104 107 103 84 58 69 85 92 92 93 94 95 104 123 42 60 55 14 293 329 19 57 51 0 320 285 265 251 261 280 296 304 306
209 216 218 225 244 235 137 156 172 86 89 85 84 76 72 73 79 82 91 103 108 111 111 118 140 136 98 28 317 313 358 14 36 14 294 283 276 279 285 261 262 272 288 299
234 251 275 241 122 92 80 86 75 61 87 84 81 80 89 102 100 93 96 110 111 113 118 126 175 217 151 144 306 324 336 338 310 270 257 257 258 248 245 248 260 266 268 276
246 224 253 264 169 150 142 122 112 97 92 87 81 87 98 103 100 99 96 96 103 101 104 111 156 304 343 99 83 331 331 314 292 280 270 257 251 253 247 226 234 249 266 282
290 244 243 251 177 146 162 160 148 143 146 134 118 103 96 93 94 95 92 84 90 95 91 91 75 13 356 35 74 28 345 322 302 289 281 277 263 253 256 250 233 235 232 220
267 252 240 244 210 199 177 163 162 163 158 146 137 123 107 100 98 91 86 82 81 84 85 81 54 18 4 17 39 29 4 333 319 311 311 311 306 291 268 264 264 237 233 235